| time (UTC) | temp F | wind direction | speed knots | gust knots | rain 1hr in | rain 24hr in | rain mn in | humidity % | barometer mb |
| 20260507104506 | 54 | 326 | 0.0 | 1.7 | 0.00 | 0.00 | 0.00 | 55 | 1016.6 |
| 20260507103003 | 53 | 328 | 0.9 | 1.7 | 0.00 | 0.00 | 0.00 | 57 | 1016.6 |
| 20260507101548 | 53 | 321 | 0.0 | 1.7 | 0.00 | 0.00 | 0.00 | 56 | 1016.8 |
| 20260507100043 | 53 | 320 | 0.0 | 1.7 | 0.00 | 0.00 | 0.00 | 59 | 1016.8 |
| 20260507094524 | 53 | 320 | 0.9 | 1.7 | 0.00 | 0.00 | 0.00 | 60 | 1016.9 |
| 20260507093022 | 53 | 320 | 0.9 | 2.6 | 0.00 | 0.00 | 0.00 | 58 | 1017.1 |
| 20260507091503 | 53 | 330 | 0.9 | 1.7 | 0.00 | 0.00 | 0.00 | 55 | 1017.2 |
| 20260507090005 | 53 | 330 | 0.0 | 1.7 | 0.00 | 0.00 | 0.00 | 55 | 1017.3 |
| 20260507084544 | 53 | 330 | 0.9 | 1.7 | 0.00 | 0.00 | 0.00 | 55 | 1017.5 |
| 20260507083042 | 53 | 338 | 0.0 | 1.7 | 0.00 | 0.00 | 0.00 | 55 | 1017.7 |
| 20260507081523 | 53 | 337 | 0.0 | 0.9 | 0.00 | 0.00 | 0.00 | 53 | 1017.7 |
| 20260507080022 | 53 | 6 | 0.0 | 1.7 | 0.00 | 0.00 | 0.00 | 53 | 1017.7 |
| 20260507074524 | 54 | 8 | 0.0 | 2.6 | 0.00 | 0.00 | 0.00 | 52 | 1017.8 |
| 20260507073101 | 54 | 300 | 0.9 | 1.7 | 0.00 | 0.00 | 0.00 | 52 | 1017.9 |
| 20260507071540 | 54 | 309 | 0.9 | 2.6 | 0.00 | 0.00 | 0.00 | 56 | 1017.9 |
| 20260507070051 | 53 | 310 | 0.9 | 2.6 | 0.00 | 0.00 | 0.00 | 57 | 1018.2 |
| 20260507064520 | 52 | 321 | 0.0 | 0.0 | 0.00 | 0.00 | 0.00 | 59 | 1018.2 |
| 20260507063018 | 53 | 321 | 0.0 | 0.0 | 0.00 | 0.00 | 0.00 | 60 | 1018.3 |
| 20260507061601 | 53 | 321 | 0.0 | 0.0 | 0.00 | 0.00 | 0.00 | 61 | 1018.2 |
| 20260507060110 | 52 | 321 | 0.0 | 0.0 | 0.00 | 0.00 | 0.00 | 62 | 1018.3 |
| 20260507060002 | 52 | 321 | 0.0 | 0.0 | 0.00 | 0.00 | 0.00 | 62 | 1018.2 |
| 20260507054547 | 53 | 321 | 0.0 | 0.0 | 0.00 | 0.00 | 0.00 | 61 | 1018.3 |
| 20260507053049 | 53 | 321 | 0.0 | 0.0 | 0.00 | 0.00 | 0.00 | 63 | 1018.4 |
| 20260507051534 | 52 | 323 | 0.0 | 0.0 | 0.00 | 0.00 | 0.00 | 64 | 1018.6 |
| 20260507050022 | 52 | 323 | 0.0 | 0.0 | 0.00 | 0.00 | 0.00 | 67 | 1018.6 |
| 20260507044503 | 52 | 323 | 0.0 | 0.9 | 0.00 | 0.00 | 0.00 | 69 | 1018.6 |
| 20260507043003 | 51 | 323 | 0.0 | 0.0 | 0.00 | 0.00 | 0.00 | 75 | 1018.5 |
| 20260507041547 | 51 | 323 | 0.0 | 0.9 | 0.00 | 0.00 | 0.00 | 75 | 1018.5 |
| 20260507040045 | 51 | 323 | 0.0 | 0.9 | 0.00 | 0.00 | 0.00 | 77 | 1018.6 |
| 20260507034547 | 51 | 327 | 0.0 | 0.0 | 0.00 | 0.00 | 0.00 | 78 | 1018.4 |
| 20260507033031 | 51 | 334 | 0.0 | 0.0 | 0.00 | 0.00 | 0.00 | 77 | 1018.3 |
| 20260507031511 | 51 | 322 | 0.0 | 0.9 | 0.00 | 0.00 | 0.00 | 76 | 1018.1 |
| 20260507030010 | 52 | 302 | 0.0 | 2.6 | 0.00 | 0.00 | 0.00 | 74 | 1017.9 |
| 20260507024558 | 52 | 302 | 0.9 | 2.6 | 0.00 | 0.00 | 0.00 | 73 | 1017.9 |
| 20260507023053 | 52 | 307 | 0.0 | 0.0 | 0.00 | 0.00 | 0.00 | 75 | 1017.9 |
| 20260507021546 | 53 | 307 | 0.0 | 0.0 | 0.00 | 0.00 | 0.00 | 73 | 1017.9 |
| 20260507020038 | 54 | 277 | 0.0 | 0.0 | 0.00 | 0.00 | 0.00 | 70 | 1017.8 |
| 20260507014542 | 55 | 277 | 0.0 | 0.0 | 0.00 | 0.00 | 0.00 | 73 | 1017.8 |
| 20260507013036 | 56 | 277 | 0.0 | 0.0 | 0.00 | 0.00 | 0.00 | 67 | 1017.8 |
| 20260507011541 | 55 | 10 | 0.0 | 0.0 | 0.00 | 0.00 | 0.00 | 71 | 1017.7 |
| 20260507010042 | 56 | 252 | 0.0 | 0.9 | 0.00 | 0.00 | 0.00 | 74 | 1017.7 |
| 20260507004534 | 56 | 200 | 0.0 | 1.7 | 0.00 | 0.00 | 0.00 | 79 | 1017.7 |
| 20260507003033 | 56 | 280 | 0.0 | 2.6 | 0.00 | 0.00 | 0.00 | 76 | 1017.7 |
| 20260507001517 | 56 | 218 | 0.0 | 1.7 | 0.00 | 0.00 | 0.00 | 79 | 1017.6 |
| 20260507000014 | 56 | 188 | 0.9 | 3.5 | 0.00 | 0.00 | 0.00 | 83 | 1017.6 |
| 20260506234602 | 56 | 179 | 0.9 | 3.5 | 0.00 | 0.00 | 0.00 | 81 | 1017.6 |
| 20260506233100 | 56 | 179 | 0.9 | 4.3 | 0.00 | 0.00 | 0.00 | 80 | 1017.6 |
| 20260506231535 | 56 | 173 | 0.9 | 4.3 | 0.00 | 0.00 | 0.00 | 80 | 1017.8 |
| 20260506230031 | 56 | 166 | 0.9 | 5.2 | 0.00 | 0.00 | 0.00 | 77 | 1018.0 |
| 20260506224515 | 56 | 188 | 0.9 | 4.3 | 0.00 | 0.00 | 0.00 | 76 | 1018.1 |
| 20260506223011 | 57 | 191 | 1.7 | 6.1 | 0.00 | 0.00 | 0.00 | 76 | 1018.3 |
| 20260506221551 | 57 | 193 | 0.9 | 5.2 | 0.00 | 0.00 | 0.00 | 76 | 1018.4 |
| 20260506220052 | 57 | 200 | 1.7 | 4.3 | 0.00 | 0.00 | 0.00 | 72 | 1018.5 |
| 20260506214530 | 57 | 176 | 2.6 | 6.1 | 0.00 | 0.00 | 0.00 | 70 | 1018.8 |
| 20260506213028 | 57 | 166 | 2.6 | 5.2 | 0.00 | 0.00 | 0.00 | 70 | 1018.9 |
| 20260506211509 | 57 | 224 | 0.9 | 5.2 | 0.00 | 0.00 | 0.00 | 72 | 1019.1 |
| 20260506210006 | 57 | 188 | 1.7 | 6.1 | 0.00 | 0.00 | 0.00 | 73 | 1019.3 |
| 20260506204548 | 57 | 160 | 0.9 | 4.3 | 0.00 | 0.00 | 0.00 | 74 | 1019.4 |
| 20260506203045 | 56 | 169 | 2.6 | 5.2 | 0.00 | 0.00 | 0.00 | 75 | 1019.4 |
| 20260506201527 | 56 | 177 | 1.7 | 5.2 | 0.00 | 0.00 | 0.00 | 74 | 1019.7 |
| 20260506200023 | 57 | 217 | 0.9 | 5.2 | 0.00 | 0.00 | 0.00 | 73 | 1019.9 |
| 20260506194504 | 57 | 141 | 2.6 | 5.2 | 0.00 | 0.00 | 0.00 | 73 | 1020.1 |
| 20260506193002 | 57 | 214 | 0.9 | 3.5 | 0.00 | 0.00 | 0.00 | 72 | 1020.2 |
| 20260506191542 | 57 | 226 | 0.0 | 3.5 | 0.00 | 0.00 | 0.00 | 71 | 1020.4 |
| 20260506190041 | 57 | 217 | 0.0 | 3.5 | 0.00 | 0.00 | 0.00 | 71 | 1020.4 |
| 20260506184526 | 56 | 214 | 0.0 | 3.5 | 0.00 | 0.00 | 0.00 | 72 | 1020.6 |
| 20260506183023 | 56 | 149 | 0.0 | 1.7 | 0.00 | 0.00 | 0.00 | 72 | 1020.7 |
| 20260506181520 | 56 | 200 | 0.0 | 1.7 | 0.00 | 0.00 | 0.00 | 72 | 1020.8 |
| 20260506180017 | 55 | 161 | 0.0 | 0.0 | 0.00 | 0.00 | 0.00 | 69 | 1020.9 |
| 20260506174513 | 53 | 194 | 0.0 | 0.0 | 0.00 | 0.00 | 0.00 | 70 | 1021.0 |
| 20260506173011 | 53 | 158 | 0.0 | 0.0 | 0.00 | 0.00 | 0.00 | 71 | 1021.0 |
| 20260506171511 | 53 | 188 | 0.0 | 0.0 | 0.00 | 0.00 | 0.00 | 66 | 1021.0 |
| 20260506170011 | 53 | 245 | 0.0 | 0.0 | 0.00 | 0.00 | 0.00 | 63 | 1021.0 |
| 20260506164604 | 51 | 136 | 0.0 | 0.0 | 0.00 | 0.00 | 0.00 | 66 | 1020.8 |
| 20260506163049 | 50 | 314 | 0.0 | 0.0 | 0.00 | 0.00 | 0.00 | 74 | 1020.9 |
| 20260506161540 | 49 | 307 | 0.0 | 0.0 | 0.00 | 0.00 | 0.00 | 81 | 1020.7 |
| 20260506160018 | 46 | 307 | 0.0 | 0.0 | 0.00 | 0.01 | 0.00 | 93 | 1020.5 |
| 20260506154514 | 45 | 312 | 0.0 | 1.7 | 0.00 | 0.01 | 0.00 | 94 | 1020.6 |
| 20260506153052 | 43 | 330 | 0.9 | 2.6 | 0.00 | 0.01 | 0.00 | 94 | 1020.5 |
| 20260506151549 | 42 | 312 | 0.9 | 1.7 | 0.00 | 0.01 | 0.00 | 94 | 1020.6 |
| 20260506150029 | 41 | 316 | 0.9 | 2.6 | 0.00 | 0.03 | 0.00 | 94 | 1020.5 |
| 20260506144544 | 41 | 310 | 0.0 | 3.5 | 0.00 | 0.03 | 0.00 | 94 | 1020.5 |
| 20260506143006 | 40 | 310 | 0.9 | 2.6 | 0.00 | 0.03 | 0.00 | 94 | 1020.3 |
| 20260506141504 | 39 | 302 | 0.9 | 2.6 | 0.00 | 0.03 | 0.00 | 94 | 1020.0 |
| 20260506140058 | 39 | 302 | 0.9 | 3.5 | 0.00 | 0.07 | 0.00 | 94 | 1019.9 |
| 20260506134544 | 38 | 310 | 0.9 | 2.6 | 0.00 | 0.07 | 0.00 | 94 | 1019.9 |
| 20260506133022 | 38 | 307 | 0.9 | 1.7 | 0.00 | 0.07 | 0.00 | 94 | 1019.6 |
| 20260506131532 | 38 | 308 | 0.9 | 1.7 | 0.00 | 0.07 | 0.00 | 94 | 1019.5 |
| 20260506130001 | 38 | 320 | 0.9 | 2.6 | 0.00 | 0.07 | 0.00 | 94 | 1019.3 |
| 20260506124559 | 38 | 316 | 0.9 | 2.6 | 0.00 | 0.07 | 0.00 | 94 | 1019.2 |
| 20260506123045 | 37 | 301 | 1.7 | 2.6 | 0.00 | 0.07 | 0.00 | 94 | 1018.9 |
| 20260506121550 | 37 | 317 | 0.9 | 1.7 | 0.00 | 0.07 | 0.00 | 94 | 1018.9 |
| 20260506120029 | 37 | 317 | 0.9 | 1.7 | 0.00 | 0.13 | 0.00 | 94 | 1018.7 |
| 20260506114521 | 37 | 317 | 0.9 | 1.7 | 0.00 | 0.13 | 0.00 | 94 | 1018.7 |
| 20260506113002 | 37 | 318 | 0.9 | 1.7 | 0.00 | 0.13 | 0.00 | 94 | 1018.6 |
| 20260506111502 | 37 | 316 | 0.9 | 1.7 | 0.00 | 0.13 | 0.00 | 94 | 1018.6 |
| 20260506110044 | 37 | 316 | 0.9 | 1.7 | 0.00 | 0.21 | 0.00 | 94 | 1018.5 |